Location: City of Moscow
(46.7306°N, 116.9989°W)
Time: 14:09:37
(UTC+00:00)

JY1SAT - Visible Passes

Search period start: 19 April 2026 00:00
Search period end: 29 April 2026 00:00
Orbit: 465 x 476 km, 97.4° (Epoch: 19 April)

Date Brightness Start Highest point End Pass type
(mag) Time Alt. Az. Time Alt. Az. Time Alt. Az.
19 Apr ? 03:35:51 10° E 03:37:10 12° ENE 03:38:28 10° NE visible
19 Apr ? 05:09:48 57° WSW 05:09:52 57° W 05:13:20 10° NNW visible
20 Apr ? 04:40:45 54° ESE 04:41:12 60° ENE 04:44:40 10° N visible
21 Apr ? 04:11:41 24° E 04:12:37 27° ENE 04:15:37 10° N visible
21 Apr ? 05:45:44 21° W 05:45:47 21° W 05:48:31 10° NW visible
22 Apr ? 03:42:35 11° E 03:44:07 14° ENE 03:45:57 10° NNE visible
22 Apr ? 05:16:39 45° WSW 05:16:55 46° W 05:20:18 10° NNW visible
23 Apr ? 04:47:32 56° SE 04:48:08 74° ENE 04:51:39 10° N visible
24 Apr ? 04:18:23 26° ESE 04:19:27 32° ENE 04:22:36 10° N visible
24 Apr ? 05:52:26 18° W 05:52:42 18° W 05:55:09 10° NW visible
25 Apr ? 03:49:13 12° E 03:50:51 16° ENE 03:53:03 10° NNE visible
25 Apr ? 05:23:16 36° WSW 05:23:43 38° W 05:27:01 10° NNW visible
26 Apr ? 04:54:04 53° SSE 04:54:51 89° ENE 04:58:22 10° NNW visible
27 Apr ? 04:24:51 28° ESE 04:26:03 38° ENE 04:29:19 10° N visible
27 Apr ? 05:58:54 15° W 05:59:22 15° W 06:01:28 10° NW visible
28 Apr ? 03:55:36 13° ESE 03:57:21 18° ENE 03:59:50 10° NNE visible
28 Apr ? 05:29:39 29° WSW 05:30:18 32° W 05:33:29 10° NNW visible
